Regional Weather Roundup
Issued by NWS

Home | Current Version | Previous Version | Text Only | Print | Product List | Glossary On
Versions: 1 2 3 4 5 6 7 8 9 10 11 12 13 14 15 16 17 18 19 20 21 22 23 24 25 26 27 28 29 30 31 32 33 34 35 36 37 38 39 40 41 42 43 44 45 46 47 48 49 50
000
ASUS44 KJAN 201810
RWRMS

MISSISSIPPI HOURLY WEATHER ROUNDUP
NATIONAL WEATHER SERVICE JACKSON MS
100 PM CDT WED AUG 20 2014

NOTE: "FAIR: INDICATES FEW OR NO CLOUDS BELOW 12,000 FEET WITH NO
SIGNIFICANT WEATHER AND/OR OBSTRUCTIONS TO VISIBILITY.

MSZ001>002-007>008-010>013-018>021-025>028-034>036-201900-
NORTHWEST MISSISSIPPI

CITY           SKY/WX    TMP DP  RH WIND       PRES   REMARKS
CLARKSDALE     FAIR      90  73  58 SW7       30.06S HX  98
CLEVELAND      FAIR      89  74  61 W5        30.05F HX  98
GREENWOOD      SUNNY     90  72  55 SW8       30.07S HX  97
6HR MIN TEMP:  73; 6HR MAX TEMP:  90;

GREENVILLE     SUNNY    N/A N/A N/A SW9       30.05F
GRENADA        FAIR      90  72  55 W6        30.06F HX  96
OLIVE BRANCH   MOSUNNY   90  73  58 SW13      30.04S HX  98
OXFORD         FAIR      88  70  55 W8        30.08S HX  92
TUNICA         CLEAR     90  70  51 SW9       30.04F HX  95
$$

MSZ003>006-009-014>017-022>024-029>033-037>039-201900-
NORTHEAST MISSISSIPPI

CITY           SKY/WX    TMP DP  RH WIND       PRES   REMARKS
BELMONT        FAIR      89  76  65 W8        30.06S HX 100
COLUMBUS AFB   SUNNY     92  71  51 W10       30.06F HX  98
6HR MIN TEMP:  72; 6HR MAX TEMP:  92; 6HR PCP: TRACE;

CORINTH        FAIR      91  73  55 W9        30.03S HX 100
GOLDN TRIANGLE MOSUNNY   97  72  44 NW7       30.07S HX 105
STARKVILLE     FAIR      91  68  46 N6        30.06F HX  95
TUPELO         SUNNY     93  70  46 W10       30.05S HX  99
6HR MIN TEMP:  76; 6HR MAX TEMP:  93;

$$

MSZ040-058-201900-
CENTRAL MISSISSIPPI

CITY           SKY/WX    TMP DP  RH WIND       PRES   REMARKS
JACKSON INTL   MOSUNNY   91  69  48 W5        30.08F HX  96
6HR MIN TEMP:  73; 6HR MAX TEMP:  91;

JACKSON HAWKNS SUNNY     91  69  48 S6        30.08F HX  96
6HR MIN TEMP:  74; 6HR MAX TEMP:  92;

MERIDIAN KEY   MOSUNNY   91  71  51 SW9       30.08F HX  97
6HR MIN TEMP:  69; 6HR MAX TEMP:  91; 6HR PCP: TRACE;

MERIDIAN NAS   MOSUNNY   91  72  53 W7        30.08F HX  98
6HR MIN TEMP:  72; 6HR MAX TEMP:  91;

RAYMOND        FAIR      91  84  79 SE5       30.08F HX 118
VICKSBURG      PTSUNNY   90  71  53 CALM      30.07F HX  96
6HR MIN TEMP:  72; 6HR MAX TEMP:  90;

$$

MSZ059>079-201900-
SOUTH MISSISSIPPI

CITY           SKY/WX    TMP DP  RH WIND       PRES   REMARKS
BROOKHAVEN     FAIR      88  68  51 CALM      30.11S HAZE    HX  91
COLUMBIA       FAIR      91  72  52 MISG      30.08F HX  98
HATTIESBURG    CLOUDY    91  71  51 NW7       30.09F HX  97
6HR MIN TEMP:  75; 6HR MAX TEMP:  93;

MCCOMB         PTSUNNY   90  68  48 W8        30.09F HX  94
6HR MIN TEMP:  73; 6HR MAX TEMP:  91;

NATCHEZ        MOSUNNY   90  75  62 S8        30.09S HX 100
6HR MIN TEMP:  73; 6HR MAX TEMP:  90;

PINE BELT      MOSUNNY   91  70  49 SW8       30.11F HX  97
6HR MIN TEMP:  73; 6HR MAX TEMP:  91;

$$

MSZ080>082-201900-
COASTAL MISSISSIPPI

CITY           SKY/WX    TMP DP  RH WIND       PRES   REMARKS
BAY ST LOUIS   MOSUNNY  N/A N/A N/A VRB5      30.08F
BILOXI         MOSUNNY   90  75  62 S9        30.09S HX 100
6HR MIN TEMP:  80; 6HR MAX TEMP:  91;

PASCAGOULA     MOSUNNY   91  73  55 S5        30.08F HX  99
6HR MIN TEMP:  74; 6HR MAX TEMP:  92;

GULFPORT       MOSUNNY   92  73  53 S7        30.08F HX 100
6HR MIN TEMP:  77; 6HR MAX TEMP:  92;

$$


USA.gov is the U.S. government's official web portal to all federal, state and local government web resources and services.